Location: *
(55.5817°S, 142.4781°W)
Time: 06:19:39
(UTC+00:00)

Cosmos 2263 Rocket - Pass Details

Date: 29 April 2025
Orbit: 821 x 849 km, 71.0° (Epoch: 23 May)

Event Time Altitude Azimuth Distance (km) Brightness Sun altitude
Exits shadow 15:39:33 12° 241° (WSW) 2,323 3.9 -10.4°
Maximum altitude 15:42:49 19° 280° (W) 1,889 3.5 -9.9°
Drops below altitude 10° 15:46:37 10° 323° (NW) 2,436 4.4 -9.4°
Sets 15:49:41 0° 340° (NNW) 3,359 5.3 -9.0°
